| time (UTC) | temp F | wind direction | speed MPH | gust MPH | rain 1hr in | rain 24hr in | rain mn in | humidity % | barometer mb |
| 20260505070053 | 49 | 0 | 0.0 | 3.0 | 0.00 | 0.00 | 0.00 | 73 | 1008.1 |
| 20260505064601 | 50 | 0 | 0.0 | 1.0 | 0.00 | 0.00 | 0.00 | 73 | 1008.0 |
| 20260505063054 | 50 | 59 | 1.0 | 5.0 | 0.00 | 0.00 | 0.00 | 73 | 1008.0 |
| 20260505061554 | 51 | 0 | 0.0 | 2.0 | 0.00 | 0.00 | 0.00 | 72 | 1008.2 |
| 20260505054604 | 53 | 0 | 0.0 | 0.0 | 0.00 | 0.00 | 0.00 | 67 | 1008.4 |
| 20260505053109 | 56 | 0 | 0.0 | 3.0 | 0.00 | 0.00 | 0.00 | 60 | 1008.5 |
| 20260505051553 | 57 | 101 | 0.0 | 2.0 | 0.00 | 0.00 | 0.00 | 58 | 1008.6 |
| 20260505041612 | 57 | 58 | 2.0 | 5.0 | 0.00 | 0.00 | 0.00 | 58 | 1008.8 |
| 20260505040053 | 54 | 41 | 2.0 | 7.0 | 0.00 | 0.00 | 0.00 | 66 | 1008.7 |
| 20260505034549 | 54 | 0 | 2.0 | 3.0 | 0.00 | 0.00 | 0.00 | 66 | 1008.8 |
| 20260505033055 | 53 | 145 | 0.0 | 2.0 | 0.00 | 0.00 | 0.00 | 67 | 1008.8 |
| 20260505031559 | 54 | 145 | 0.0 | 4.0 | 0.00 | 0.00 | 0.00 | 66 | 1008.9 |
| 20260505030052 | 52 | 137 | 1.0 | 2.0 | 0.00 | 0.00 | 0.00 | 68 | 1008.9 |
| 20260505024551 | 53 | 34 | 1.0 | 4.0 | 0.00 | 0.00 | 0.00 | 66 | 1008.9 |
| 20260505023100 | 52 | 97 | 1.0 | 8.0 | 0.00 | 0.00 | 0.00 | 67 | 1008.9 |
| 20260505021552 | 50 | 353 | 1.0 | 2.0 | 0.00 | 0.00 | 0.00 | 72 | 1008.8 |
| 20260505020054 | 50 | 0 | 0.0 | 2.0 | 0.00 | 0.00 | 0.00 | 71 | 1008.9 |
| 20260505014550 | 51 | 141 | 0.0 | 1.0 | 0.00 | 0.00 | 0.00 | 70 | 1009.0 |
| 20260505013049 | 52 | 0 | 0.0 | 0.0 | 0.00 | 0.00 | 0.00 | 68 | 1008.9 |
| 20260505011552 | 52 | 0 | 0.0 | 2.0 | 0.00 | 0.00 | 0.00 | 66 | 1008.7 |
| 20260505010053 | 53 | 331 | 1.0 | 3.0 | 0.00 | 0.00 | 0.00 | 65 | 1008.3 |
| 20260505004552 | 55 | 0 | 0.0 | 3.0 | 0.00 | 0.00 | 0.00 | 62 | 1008.0 |
| 20260505003048 | 57 | 328 | 1.0 | 3.0 | 0.00 | 0.00 | 0.00 | 57 | 1007.9 |
| 20260505001552 | 59 | 325 | 1.0 | 3.0 | 0.00 | 0.00 | 0.00 | 54 | 1007.7 |
| 20260505000106 | 63 | 341 | 0.0 | 3.0 | 0.00 | 0.00 | 0.00 | 47 | 1007.4 |
| 20260504234610 | 66 | 0 | 0.0 | 9.0 | 0.00 | 0.00 | 0.00 | 37 | 1007.0 |
| 20260504233051 | 67 | 139 | 1.0 | 4.0 | 0.00 | 0.00 | 0.00 | 36 | 1007.0 |
| 20260504231603 | 68 | 296 | 1.0 | 8.0 | 0.00 | 0.00 | 0.00 | 35 | 1006.8 |
| 20260504230052 | 68 | 239 | 4.0 | 11.0 | 0.00 | 0.00 | 0.00 | 35 | 1006.7 |
| 20260504224555 | 0 | 0.0 | 0.0 | 0.00 | 0.00 | 0.00 | 1006.6 | ||
| 20260504223058 | 0 | 0.0 | 0.0 | 0.00 | 0.00 | 0.00 | 1006.4 | ||
| 20260504221558 | 0 | 0.0 | 0.0 | 0.00 | 0.00 | 0.00 | 1006.2 | ||
| 20260504220055 | 0 | 0.0 | 0.0 | 0.00 | 0.00 | 0.00 | 1006.4 | ||
| 20260504214554 | 0 | 0.0 | 0.0 | 0.00 | 0.00 | 0.00 | 1006.5 | ||
| 20260504213055 | 0 | 0.0 | 0.0 | 0.00 | 0.00 | 0.00 | 1006.6 | ||
| 20260504211554 | 0 | 0.0 | 0.0 | 0.00 | 0.00 | 0.00 | 1006.7 | ||
| 20260504210107 | 0 | 0.0 | 0.0 | 0.00 | 0.00 | 0.00 | 1006.8 | ||
| 20260504204602 | 0 | 0.0 | 0.0 | 0.00 | 0.00 | 0.00 | 1006.8 | ||
| 20260504203054 | 0 | 0.0 | 0.0 | 0.00 | 0.00 | 0.00 | 1007.1 | ||
| 20260504201556 | 0 | 0.0 | 0.0 | 0.00 | 0.00 | 0.00 | 1007.0 | ||
| 20260504200059 | 0 | 0.0 | 0.0 | 0.00 | 0.00 | 0.00 | 1007.2 | ||
| 20260504194607 | 0 | 0.0 | 0.0 | 0.00 | 0.01 | 0.00 | 1007.5 | ||
| 20260504193056 | 0 | 0.0 | 0.0 | 0.00 | 0.01 | 0.00 | 1007.6 | ||
| 20260504191555 | 0 | 0.0 | 0.0 | 0.00 | 0.01 | 0.00 | 1007.6 | ||
| 20260504190120 | 0 | 0.0 | 0.0 | 0.00 | 0.01 | 0.00 | 1007.8 | ||
| 20260504184556 | 0 | 0.0 | 0.0 | 0.00 | 0.01 | 0.00 | 1007.6 | ||
| 20260504183050 | 66 | 239 | 5.0 | 14.0 | 0.00 | 0.01 | 0.00 | 100 | 1007.7 |
| 20260504181600 | 67 | 314 | 4.0 | 14.0 | 0.00 | 0.01 | 0.00 | 36 | 1007.7 |
| 20260504180155 | 66 | 314 | 5.0 | 13.0 | 0.00 | 0.01 | 0.00 | 38 | 1007.9 |
| 20260504174557 | 67 | 297 | 3.0 | 17.0 | 0.00 | 0.01 | 0.00 | 35 | 1007.9 |
| 20260504173059 | 65 | 284 | 4.0 | 25.0 | 0.00 | 0.01 | 0.00 | 38 | 1008.1 |
| 20260504171557 | 64 | 287 | 5.0 | 16.0 | 0.00 | 0.01 | 0.00 | 38 | 1008.2 |
| 20260504120112 | 52 | 299 | 3.0 | 6.0 | 0.00 | 0.01 | 0.00 | 57 | 1010.6 |
| 20260504081555 | 31 | 0 | 0.0 | 2.0 | 0.00 | 0.01 | 0.00 | 100 | 1010.9 |